timestamp,waterbody_station,lease,latitude,longitude,deployment_start_date,deployment_end_date,sensor,depth,mooring,Temperature_degrees Celsius,Dissolved Oxygen_percent saturation,Salinity_practical salinity units
2019-04-11T00:00:00,Lobster Bay-Old Point Channel,,43.721,-65.8457,2018-03-20,2019-06-15,HOBO-20291436,5.0,float,3.195,,
2019-04-11T00:15:00,Lobster Bay-Old Point Channel,,43.721,-65.8457,2018-03-20,2019-06-15,HOBO-20291436,5.0,float,3.168,,
2019-04-11T00:30:00,Lobster Bay-Old Point Channel,,43.721,-65.8457,2018-03-20,2019-06-15,HOBO-20291436,5.0,float,3.195,,
2019-04-11T00:45:00,Lobster Bay-Old Point Channel,,43.721,-65.8457,2018-03-20,2019-06-15,HOBO-20291436,5.0,float,3.221,,
2019-04-11T01:00:00,Lobster Bay-Old Point Channel,,43.721,-65.8457,2018-03-20,2019-06-15,HOBO-20291436,5.0,float,3.221,,
2019-04-11T01:15:00,Lobster Bay-Old Point Channel,,43.721,-65.8457,2018-03-20,2019-06-15,HOBO-20291436,5.0,float,3.221,,
2019-04-11T01:30:00,Lobster Bay-Old Point Channel,,43.721,-65.8457,2018-03-20,2019-06-15,HOBO-20291436,5.0,float,3.248,,
2019-04-11T01:45:00,Lobster Bay-Old Point Channel,,43.721,-65.8457,2018-03-20,2019-06-15,HOBO-20291436,5.0,float,3.116,,
2019-04-11T02:00:00,Lobster Bay-Old Point Channel,,43.721,-65.8457,2018-03-20,2019-06-15,HOBO-20291436,5.0,float,3.089,,
2019-04-11T02:15:00,Lobster Bay-Old Point Channel,,43.721,-65.8457,2018-03-20,2019-06-15,HOBO-20291436,5.0,float,3.089,,
2019-04-11T02:30:00,Lobster Bay-Old Point Channel,,43.721,-65.8457,2018-03-20,2019-06-15,HOBO-20291436,5.0,float,3.089,,
2019-04-11T02:45:00,Lobster Bay-Old Point Channel,,43.721,-65.8457,2018-03-20,2019-06-15,HOBO-20291436,5.0,float,3.142,,
2019-04-11T03:00:00,Lobster Bay-Old Point Channel,,43.721,-65.8457,2018-03-20,2019-06-15,HOBO-20291436,5.0,float,3.168,,
2019-04-11T03:15:00,Lobster Bay-Old Point Channel,,43.721,-65.8457,2018-03-20,2019-06-15,HOBO-20291436,5.0,float,3.195,,
2019-04-11T03:30:00,Lobster Bay-Old Point Channel,,43.721,-65.8457,2018-03-20,2019-06-15,HOBO-20291436,5.0,float,3.195,,
2019-04-11T03:45:00,Lobster Bay-Old Point Channel,,43.721,-65.8457,2018-03-20,2019-06-15,HOBO-20291436,5.0,float,3.168,,
2019-04-11T04:00:00,Lobster Bay-Old Point Channel,,43.721,-65.8457,2018-03-20,2019-06-15,HOBO-20291436,5.0,float,3.168,,
2019-04-11T04:15:00,Lobster Bay-Old Point Channel,,43.721,-65.8457,2018-03-20,2019-06-15,HOBO-20291436,5.0,float,3.142,,
2019-04-11T04:30:00,Lobster Bay-Old Point Channel,,43.721,-65.8457,2018-03-20,2019-06-15,HOBO-20291436,5.0,float,3.142,,
2019-04-11T04:45:00,Lobster Bay-Old Point Channel,,43.721,-65.8457,2018-03-20,2019-06-15,HOBO-20291436,5.0,float,3.142,,
2019-04-11T05:00:00,Lobster Bay-Old Point Channel,,43.721,-65.8457,2018-03-20,2019-06-15,HOBO-20291436,5.0,float,3.116,,
2019-04-11T05:15:00,Lobster Bay-Old Point Channel,,43.721,-65.8457,2018-03-20,2019-06-15,HOBO-20291436,5.0,float,3.116,,
2019-04-11T05:30:00,Lobster Bay-Old Point Channel,,43.721,-65.8457,2018-03-20,2019-06-15,HOBO-20291436,5.0,float,3.116,,
2019-04-11T05:45:00,Lobster Bay-Old Point Channel,,43.721,-65.8457,2018-03-20,2019-06-15,HOBO-20291436,5.0,float,3.116,,
2019-04-11T06:00:00,Lobster Bay-Old Point Channel,,43.721,-65.8457,2018-03-20,2019-06-15,HOBO-20291436,5.0,float,3.116,,
2019-04-11T06:15:00,Lobster Bay-Old Point Channel,,43.721,-65.8457,2018-03-20,2019-06-15,HOBO-20291436,5.0,float,3.142,,
2019-04-11T06:30:00,Lobster Bay-Old Point Channel,,43.721,-65.8457,2018-03-20,2019-06-15,HOBO-20291436,5.0,float,3.116,,
2019-04-11T06:45:00,Lobster Bay-Old Point Channel,,43.721,-65.8457,2018-03-20,2019-06-15,HOBO-20291436,5.0,float,3.142,,
2019-04-11T07:00:00,Lobster Bay-Old Point Channel,,43.721,-65.8457,2018-03-20,2019-06-15,HOBO-20291436,5.0,float,3.116,,
2019-04-11T07:15:00,Lobster Bay-Old Point Channel,,43.721,-65.8457,2018-03-20,2019-06-15,HOBO-20291436,5.0,float,3.195,,
2019-04-11T07:30:00,Lobster Bay-Old Point Channel,,43.721,-65.8457,2018-03-20,2019-06-15,HOBO-20291436,5.0,float,3.168,,
2019-04-11T07:45:00,Lobster Bay-Old Point Channel,,43.721,-65.8457,2018-03-20,2019-06-15,HOBO-20291436,5.0,float,3.168,,
2019-04-11T08:00:00,Lobster Bay-Old Point Channel,,43.721,-65.8457,2018-03-20,2019-06-15,HOBO-20291436,5.0,float,3.142,,
2019-04-11T08:15:00,Lobster Bay-Old Point Channel,,43.721,-65.8457,2018-03-20,2019-06-15,HOBO-20291436,5.0,float,3.142,,
2019-04-11T08:30:00,Lobster Bay-Old Point Channel,,43.721,-65.8457,2018-03-20,2019-06-15,HOBO-20291436,5.0,float,3.168,,
2019-04-11T08:45:00,Lobster Bay-Old Point Channel,,43.721,-65.8457,2018-03-20,2019-06-15,HOBO-20291436,5.0,float,3.142,,
2019-04-11T09:00:00,Lobster Bay-Old Point Channel,,43.721,-65.8457,2018-03-20,2019-06-15,HOBO-20291436,5.0,float,3.168,,
2019-04-11T09:15:00,Lobster Bay-Old Point Channel,,43.721,-65.8457,2018-03-20,2019-06-15,HOBO-20291436,5.0,float,3.168,,
2019-04-11T09:30:00,Lobster Bay-Old Point Channel,,43.721,-65.8457,2018-03-20,2019-06-15,HOBO-20291436,5.0,float,3.168,,
2019-04-11T09:45:00,Lobster Bay-Old Point Channel,,43.721,-65.8457,2018-03-20,2019-06-15,HOBO-20291436,5.0,float,3.195,,
2019-04-11T10:00:00,Lobster Bay-Old Point Channel,,43.721,-65.8457,2018-03-20,2019-06-15,HOBO-20291436,5.0,float,3.195,,
2019-04-11T10:15:00,Lobster Bay-Old Point Channel,,43.721,-65.8457,2018-03-20,2019-06-15,HOBO-20291436,5.0,float,3.195,,
2019-04-11T10:30:00,Lobster Bay-Old Point Channel,,43.721,-65.8457,2018-03-20,2019-06-15,HOBO-20291436,5.0,float,3.221,,
2019-04-11T10:45:00,Lobster Bay-Old Point Channel,,43.721,-65.8457,2018-03-20,2019-06-15,HOBO-20291436,5.0,float,3.248,,
2019-04-11T11:00:00,Lobster Bay-Old Point Channel,,43.721,-65.8457,2018-03-20,2019-06-15,HOBO-20291436,5.0,float,3.248,,
2019-04-11T11:15:00,Lobster Bay-Old Point Channel,,43.721,-65.8457,2018-03-20,2019-06-15,HOBO-20291436,5.0,float,3.248,,
2019-04-11T11:30:00,Lobster Bay-Old Point Channel,,43.721,-65.8457,2018-03-20,2019-06-15,HOBO-20291436,5.0,float,3.248,,
2019-04-11T11:45:00,Lobster Bay-Old Point Channel,,43.721,-65.8457,2018-03-20,2019-06-15,HOBO-20291436,5.0,float,3.248,,
2019-04-11T12:00:00,Lobster Bay-Old Point Channel,,43.721,-65.8457,2018-03-20,2019-06-15,HOBO-20291436,5.0,float,3.221,,
2019-04-11T12:15:00,Lobster Bay-Old Point Channel,,43.721,-65.8457,2018-03-20,2019-06-15,HOBO-20291436,5.0,float,3.195,,
2019-04-11T12:30:00,Lobster Bay-Old Point Channel,,43.721,-65.8457,2018-03-20,2019-06-15,HOBO-20291436,5.0,float,3.195,,
2019-04-11T12:45:00,Lobster Bay-Old Point Channel,,43.721,-65.8457,2018-03-20,2019-06-15,HOBO-20291436,5.0,float,3.168,,
2019-04-11T13:00:00,Lobster Bay-Old Point Channel,,43.721,-65.8457,2018-03-20,2019-06-15,HOBO-20291436,5.0,float,3.195,,
2019-04-11T13:15:00,Lobster Bay-Old Point Channel,,43.721,-65.8457,2018-03-20,2019-06-15,HOBO-20291436,5.0,float,3.248,,
2019-04-11T13:30:00,Lobster Bay-Old Point Channel,,43.721,-65.8457,2018-03-20,2019-06-15,HOBO-20291436,5.0,float,3.274,,
2019-04-11T13:45:00,Lobster Bay-Old Point Channel,,43.721,-65.8457,2018-03-20,2019-06-15,HOBO-20291436,5.0,float,3.274,,
2019-04-11T14:00:00,Lobster Bay-Old Point Channel,,43.721,-65.8457,2018-03-20,2019-06-15,HOBO-20291436,5.0,float,3.274,,
2019-04-11T14:15:00,Lobster Bay-Old Point Channel,,43.721,-65.8457,2018-03-20,2019-06-15,HOBO-20291436,5.0,float,3.195,,
2019-04-11T14:30:00,Lobster Bay-Old Point Channel,,43.721,-65.8457,2018-03-20,2019-06-15,HOBO-20291436,5.0,float,3.142,,
2019-04-11T14:45:00,Lobster Bay-Old Point Channel,,43.721,-65.8457,2018-03-20,2019-06-15,HOBO-20291436,5.0,float,3.142,,
2019-04-11T15:00:00,Lobster Bay-Old Point Channel,,43.721,-65.8457,2018-03-20,2019-06-15,HOBO-20291436,5.0,float,3.168,,
2019-04-11T15:15:00,Lobster Bay-Old Point Channel,,43.721,-65.8457,2018-03-20,2019-06-15,HOBO-20291436,5.0,float,3.168,,
2019-04-11T15:30:00,Lobster Bay-Old Point Channel,,43.721,-65.8457,2018-03-20,2019-06-15,HOBO-20291436,5.0,float,3.274,,
2019-04-11T15:45:00,Lobster Bay-Old Point Channel,,43.721,-65.8457,2018-03-20,2019-06-15,HOBO-20291436,5.0,float,3.274,,
2019-04-11T16:00:00,Lobster Bay-Old Point Channel,,43.721,-65.8457,2018-03-20,2019-06-15,HOBO-20291436,5.0,float,3.274,,
2019-04-11T16:15:00,Lobster Bay-Old Point Channel,,43.721,-65.8457,2018-03-20,2019-06-15,HOBO-20291436,5.0,float,3.301,,
2019-04-11T16:30:00,Lobster Bay-Old Point Channel,,43.721,-65.8457,2018-03-20,2019-06-15,HOBO-20291436,5.0,float,3.354,,
2019-04-11T16:45:00,Lobster Bay-Old Point Channel,,43.721,-65.8457,2018-03-20,2019-06-15,HOBO-20291436,5.0,float,3.327,,
2019-04-11T17:00:00,Lobster Bay-Old Point Channel,,43.721,-65.8457,2018-03-20,2019-06-15,HOBO-20291436,5.0,float,3.354,,
2019-04-11T17:15:00,Lobster Bay-Old Point Channel,,43.721,-65.8457,2018-03-20,2019-06-15,HOBO-20291436,5.0,float,3.433,,
2019-04-11T17:30:00,Lobster Bay-Old Point Channel,,43.721,-65.8457,2018-03-20,2019-06-15,HOBO-20291436,5.0,float,3.512,,
2019-04-11T17:45:00,Lobster Bay-Old Point Channel,,43.721,-65.8457,2018-03-20,2019-06-15,HOBO-20291436,5.0,float,3.485,,
2019-04-11T18:00:00,Lobster Bay-Old Point Channel,,43.721,-65.8457,2018-03-20,2019-06-15,HOBO-20291436,5.0,float,3.406,,
2019-04-11T18:15:00,Lobster Bay-Old Point Channel,,43.721,-65.8457,2018-03-20,2019-06-15,HOBO-20291436,5.0,float,3.38,,
2019-04-11T18:30:00,Lobster Bay-Old Point Channel,,43.721,-65.8457,2018-03-20,2019-06-15,HOBO-20291436,5.0,float,3.459,,
2019-04-11T18:45:00,Lobster Bay-Old Point Channel,,43.721,-65.8457,2018-03-20,2019-06-15,HOBO-20291436,5.0,float,3.433,,
2019-04-11T19:00:00,Lobster Bay-Old Point Channel,,43.721,-65.8457,2018-03-20,2019-06-15,HOBO-20291436,5.0,float,3.38,,
2019-04-11T19:15:00,Lobster Bay-Old Point Channel,,43.721,-65.8457,2018-03-20,2019-06-15,HOBO-20291436,5.0,float,3.327,,
2019-04-11T19:30:00,Lobster Bay-Old Point Channel,,43.721,-65.8457,2018-03-20,2019-06-15,HOBO-20291436,5.0,float,3.274,,
2019-04-11T19:45:00,Lobster Bay-Old Point Channel,,43.721,-65.8457,2018-03-20,2019-06-15,HOBO-20291436,5.0,float,3.327,,
2019-04-11T20:00:00,Lobster Bay-Old Point Channel,,43.721,-65.8457,2018-03-20,2019-06-15,HOBO-20291436,5.0,float,3.749,,
2019-04-11T20:15:00,Lobster Bay-Old Point Channel,,43.721,-65.8457,2018-03-20,2019-06-15,HOBO-20291436,5.0,float,3.932,,
2019-04-11T20:30:00,Lobster Bay-Old Point Channel,,43.721,-65.8457,2018-03-20,2019-06-15,HOBO-20291436,5.0,float,3.932,,
2019-04-11T20:45:00,Lobster Bay-Old Point Channel,,43.721,-65.8457,2018-03-20,2019-06-15,HOBO-20291436,5.0,float,3.801,,
2019-04-11T21:00:00,Lobster Bay-Old Point Channel,,43.721,-65.8457,2018-03-20,2019-06-15,HOBO-20291436,5.0,float,3.775,,
2019-04-11T21:15:00,Lobster Bay-Old Point Channel,,43.721,-65.8457,2018-03-20,2019-06-15,HOBO-20291436,5.0,float,3.722,,
2019-04-11T21:30:00,Lobster Bay-Old Point Channel,,43.721,-65.8457,2018-03-20,2019-06-15,HOBO-20291436,5.0,float,3.749,,
2019-04-11T21:45:00,Lobster Bay-Old Point Channel,,43.721,-65.8457,2018-03-20,2019-06-15,HOBO-20291436,5.0,float,3.801,,
2019-04-11T22:00:00,Lobster Bay-Old Point Channel,,43.721,-65.8457,2018-03-20,2019-06-15,HOBO-20291436,5.0,float,3.801,,
2019-04-11T22:15:00,Lobster Bay-Old Point Channel,,43.721,-65.8457,2018-03-20,2019-06-15,HOBO-20291436,5.0,float,3.775,,
2019-04-11T22:30:00,Lobster Bay-Old Point Channel,,43.721,-65.8457,2018-03-20,2019-06-15,HOBO-20291436,5.0,float,3.827,,
2019-04-11T22:45:00,Lobster Bay-Old Point Channel,,43.721,-65.8457,2018-03-20,2019-06-15,HOBO-20291436,5.0,float,3.801,,
2019-04-11T23:00:00,Lobster Bay-Old Point Channel,,43.721,-65.8457,2018-03-20,2019-06-15,HOBO-20291436,5.0,float,3.775,,
2019-04-11T23:15:00,Lobster Bay-Old Point Channel,,43.721,-65.8457,2018-03-20,2019-06-15,HOBO-20291436,5.0,float,3.801,,
2019-04-11T23:30:00,Lobster Bay-Old Point Channel,,43.721,-65.8457,2018-03-20,2019-06-15,HOBO-20291436,5.0,float,3.801,,
2019-04-11T23:45:00,Lobster Bay-Old Point Channel,,43.721,-65.8457,2018-03-20,2019-06-15,HOBO-20291436,5.0,float,3.854,,
